Hourly Data Report for October 02, 2017

All times are specified in Local Standard Time (LST). Add 1 hour to adjust for Daylight Saving Time where and when it is observed.

IQALUIT CLIMATE
NUNAVUT

63°44'50.000" N
68°32'40.000" W
33.50 m
2402592
71321
XFB

Download Data

Hourly Data (October 2017)
Hourly Data Report for October 2, 2017
Temp Definition
°C
Dew Point Temp Definition
°C
Rel Hum Definition
%
Wind Dir Definition
10's deg

Wind Spd Definition
km/h
Visibility Definition
km
Stn Press Definition
kPa
Hmdx Definition


Wind Chill Definition


Weather Definition


TIME
00:00 -1.8 -3.3 89 31 21   101.76   -8 LegendNANA
01:00 -1.6 -3.9 84 31 29   101.83   -8 LegendNANA
02:00 -1.5 -3.6 86 32 22   101.87   -7 LegendNANA
03:00 -1.7 -4.1 84 30 28   101.88   -8 LegendNANA
04:00 -1.7 -4.6 81 31 29   101.92   -9 LegendNANA
05:00 -2.0 -4.3 84 30 21   101.95   -8 LegendNANA
06:00 -2.0 -4.8 81 31 27   101.98   -9 LegendNANA
07:00 -2.2 -4.8 82 32 24   102.03   -9 LegendNANA
08:00 -1.9 -4.5 83 33 22   102.04   -8 LegendNANA
09:00 -1.1 -4.3 79 32 15   102.03   -6 LegendNANA
10:00 -0.8 -4.4 77 33 12   101.97   -5 LegendNANA
11:00 -0.6 -4.9 73 35 7   101.90   -3 LegendNANA
12:00 0.0 -5.1 68 29 2   101.88   -1 LegendNANA
13:00 -0.2 -4.6 72 12 6   101.80   -2 LegendNANA
14:00 -0.1 -3.9 75 15 9   101.79   -3 LegendNANA
15:00 -0.2 -3.2 80 15 12   101.76   -4 LegendNANA
16:00 0.0 -3.1 79 15 17   101.68   -5 LegendNANA
17:00 -0.2 -2.5 84 14 18   101.65   -5 LegendNANA
18:00 -0.4 -3.1 82 14 18   101.60   -5 LegendNANA
19:00 -0.4 -3.1 82 13 20   101.52   -6 LegendNANA
20:00 -0.3 -3.2 81 13 18   101.42   -5 LegendNANA
21:00 -0.5 -4.5 74 12 13   101.33   -5 LegendNANA
22:00 -0.5 -4.2 76 12 12   101.21   -4 LegendNANA
23:00 -0.4 -4.7 73 13 17   101.08   -5 LegendNANA

Notes on Data Quality.

Legend

  • E = Estimated
  • M = Missing
  • NA = Not Available
  • ‡ = Partner data that is not subject to review by the National Climate Archives
Date modified: